This is the latest recevied weather packets stored in our database for station/object WMKD. If no packets are shown the sender has not sent any weather packets the latest 10 day(s).
| Time | Temp. | Humidity | Pressure | Rain* | Wind** | Luminosity | Snow |
|---|---|---|---|---|---|---|---|
| 1777882189 | 32.78° C | 62% | 1006 hPa | - | - | - | - |
| 1777878592 | 33.89° C | 59% | 1007 hPa | - | - | - | - |
| 1777874988 | 32.78° C | 62% | 1008 hPa | - | - | - | - |
| 1777871389 | 32.78° C | 62% | 1009 hPa | - | - | - | - |
| 1777867789 | 31.67° C | 66% | 1010 hPa | - | - | - | - |
| 1777864192 | 30.56° C | 70% | 1010 hPa | - | - | - | - |
| 1777860589 | 30° C | 74% | 1011 hPa | - | - | - | - |
| 1777856990 | 26.67° C | 88% | 1010 hPa | - | - | - | - |
| 1777853388 | 25° C | 94% | 1009 hPa | - | - | - | - |
| 1777849788 | 23.89° C | 10% | - | - | - | - | - |
| 1777846192 | 23.89° C | 10% | - | - | - | - | - |
| 1777842589 | 25° C | 94% | 1008 hPa | - | - | - | - |
| 1777838988 | 25° C | 94% | 1008 hPa | - | - | - | - |
| 1777835389 | 25° C | 94% | 1009 hPa | - | - | - | - |
| 1777831788 | 25° C | 94% | 1009 hPa | - | - | - | - |
| 1777828192 | 25° C | 10% | - | - | - | - | - |
| 1777824588 | 25.56° C | 94% | 1009 hPa | - | - | - | - |
| 1777820991 | 26.67° C | 88% | 1009 hPa | - | - | - | - |
| 1777817388 | 26.67° C | 88% | 1009 hPa | - | - | - | - |
| 1777813788 | 26.67° C | 94% | 1008 hPa | - | - | - | - |
| 1777810191 | 27.78° C | 88% | 1008 hPa | - | - | - | - |
| 1777806589 | 30° C | 74% | 1006 hPa | - | - | - | - |
| 1777803584 | 30° C | 74% | 1006 hPa | - | - | - | - |
| 1777802987 | 30° C | 74% | 1006 hPa | - | - | - | - |
| 1777799387 | 30.56° C | 70% | 1005 hPa | - | - | - | - |
* Rain since midnight (hover to see other rain measurements)
** Current wind speed in m/s (hover to see current wind gust speed)